Time,TemperatureF,DewpointF,PressureIn,WindDirection,WindDirectionDegrees,WindSpeedMPH,WindSpeedGustMPH,Humidity,HourlyPrecipIn,Conditions,Clouds,dailyrainin,SoftwareType,DateUTC
2013-02-07 00:15:00,61.7,61.1,29.76,ESE,112,3.7,-999.0,98,-99.99,,,0.00,Acu-Link.com,2013-02-07 06:15:00,
2013-02-07 00:55:00,59.5,58.9,29.75,ESE,112,1.7,-999.0,98,-99.99,,,0.00,Acu-Link.com,2013-02-07 06:55:00,
2013-02-07 01:16:00,59.4,58.8,29.76,NE,45,0.0,-999.0,98,-99.99,,,0.00,Acu-Link.com,2013-02-07 07:16:00,
2013-02-07 05:11:00,58.1,57.5,29.76,East,90,0.0,-999.0,98,-99.99,,,0.00,Acu-Link.com,2013-02-07 11:11:00,
2013-02-07 05:27:00,58.3,57.7,29.76,East,90,0.0,-999.0,98,-99.99,,,0.00,Acu-Link.com,2013-02-07 11:27:00,
2013-02-07 05:50:00,58.3,57.7,29.76,East,90,0.0,-999.0,98,-99.99,,,0.00,Acu-Link.com,2013-02-07 11:50:00,
2013-02-07 06:09:00,58.1,57.5,29.76,South,180,0.0,-999.0,98,-99.99,,,0.00,Acu-Link.com,2013-02-07 12:09:00,
2013-02-07 08:07:00,58.5,57.9,29.80,WNW,292,0.0,-999.0,98,-99.99,,,0.00,Acu-Link.com,2013-02-07 14:07:00,
2013-02-07 08:22:00,58.6,58.0,29.81,NNW,337,2.2,-999.0,98,-99.99,,,0.00,Acu-Link.com,2013-02-07 14:22:00,
2013-02-07 08:37:00,58.8,58.2,29.81,NNW,337,3.2,-999.0,98,-99.99,,,0.00,Acu-Link.com,2013-02-07 14:37:00,
2013-02-07 08:53:00,59.0,58.4,29.82,NNW,337,2.7,-999.0,98,-99.99,,,0.00,Acu-Link.com,2013-02-07 14:53:00,
2013-02-07 09:08:00,59.5,58.9,29.82,WNW,292,0.0,-999.0,98,-99.99,,,0.00,Acu-Link.com,2013-02-07 15:08:00,
2013-02-07 09:23:00,59.7,59.1,29.82,NNE,22,2.7,-999.0,98,-99.99,,,0.00,Acu-Link.com,2013-02-07 15:23:00,
2013-02-07 09:38:00,60.4,59.8,29.81,NNW,337,2.7,-999.0,98,-99.99,,,0.00,Acu-Link.com,2013-02-07 15:38:00,
2013-02-07 09:53:00,61.2,60.6,29.81,NE,45,3.7,-999.0,98,-99.99,,,0.00,Acu-Link.com,2013-02-07 15:53:00,
2013-02-07 10:08:00,61.7,61.1,29.82,NE,45,2.2,-999.0,98,-99.99,,,0.00,Acu-Link.com,2013-02-07 16:08:00,
2013-02-07 10:23:00,62.6,62.0,29.82,NE,45,3.2,-999.0,98,-99.99,,,0.00,Acu-Link.com,2013-02-07 16:23:00,
2013-02-07 10:38:00,63.5,62.9,29.82,South,180,0.0,-999.0,98,-99.99,,,0.00,Acu-Link.com,2013-02-07 16:38:00,
2013-02-07 10:53:00,63.9,63.3,29.82,NNE,22,3.2,-999.0,98,-99.99,,,0.00,Acu-Link.com,2013-02-07 16:53:00,
2013-02-07 11:09:00,63.9,63.3,29.81,NE,45,3.7,-999.0,98,-99.99,,,0.00,Acu-Link.com,2013-02-07 17:09:00,
2013-02-07 11:24:00,64.6,64.0,29.82,SSE,157,1.1,-999.0,98,-99.99,,,0.00,Acu-Link.com,2013-02-07 17:24:00,
2013-02-07 11:39:00,64.9,64.3,29.80,NNE,22,2.7,-999.0,98,-99.99,,,0.00,Acu-Link.com,2013-02-07 17:39:00,
2013-02-07 11:54:00,65.7,65.1,29.80,NNE,22,2.2,-999.0,98,-99.99,,,0.00,Acu-Link.com,2013-02-07 17:54:00,
2013-02-07 12:09:00,65.8,65.2,29.80,West,270,0.0,-999.0,98,-99.99,,,0.00,Acu-Link.com,2013-02-07 18:09:00,
2013-02-07 12:24:00,67.1,65.3,29.80,SSW,202,2.7,-999.0,94,-99.99,,,0.00,Acu-Link.com,2013-02-07 18:24:00,
2013-02-07 12:39:00,68.0,66.5,29.80,SW,225,2.2,-999.0,95,-99.99,,,0.00,Acu-Link.com,2013-02-07 18:39:00,
2013-02-07 12:54:00,65.7,65.1,29.79,SW,225,3.2,-999.0,98,-99.99,,,0.00,Acu-Link.com,2013-02-07 18:54:00,
2013-02-07 13:09:00,65.8,65.2,29.78,South,180,1.7,-999.0,98,-99.99,,,0.00,Acu-Link.com,2013-02-07 19:09:00,
2013-02-07 13:24:00,66.2,65.6,29.78,SW,225,3.2,-999.0,98,-99.99,,,0.00,Acu-Link.com,2013-02-07 19:24:00,
2013-02-07 13:40:00,66.2,65.6,29.77,South,180,2.2,-999.0,98,-99.99,,,0.00,Acu-Link.com,2013-02-07 19:40:00,
2013-02-07 13:55:00,66.0,65.4,29.77,WSW,247,1.7,-999.0,98,-99.99,,,0.00,Acu-Link.com,2013-02-07 19:55:00,
2013-02-07 14:10:00,66.4,65.8,29.77,SW,225,2.2,-999.0,98,-99.99,,,0.00,Acu-Link.com,2013-02-07 20:10:00,
2013-02-07 14:25:00,66.0,65.4,29.77,SSW,202,3.2,-999.0,98,-99.99,,,0.00,Acu-Link.com,2013-02-07 20:25:00,
2013-02-07 14:40:00,67.1,66.5,29.76,SW,225,3.2,-999.0,98,-99.99,,,0.00,Acu-Link.com,2013-02-07 20:40:00,
2013-02-07 14:55:00,67.5,66.6,29.75,SW,225,2.2,-999.0,97,-99.99,,,0.00,Acu-Link.com,2013-02-07 20:55:00,
2013-02-07 15:10:00,67.5,66.9,29.75,WSW,247,3.7,-999.0,98,-99.99,,,0.00,Acu-Link.com,2013-02-07 21:10:00,
2013-02-07 15:29:00,67.5,66.6,29.75,WSW,247,2.7,-999.0,97,-99.99,,,0.00,Acu-Link.com,2013-02-07 21:29:00,
2013-02-07 16:02:00,66.7,65.8,29.75,WSW,247,2.2,-999.0,97,-99.99,,,0.00,Acu-Link.com,2013-02-07 22:02:00,
2013-02-07 16:42:00,66.7,66.1,29.76,SSE,157,0.0,-999.0,98,-99.99,,,0.00,Acu-Link.com,2013-02-07 22:42:00,
2013-02-07 16:57:00,67.6,66.1,29.75,East,90,2.2,-999.0,95,-99.99,,,0.00,Acu-Link.com,2013-02-07 22:57:00,
2013-02-07 18:00:00,67.3,65.8,29.76,East,90,0.0,-999.0,95,-99.99,,,0.00,Acu-Link.com,2013-02-08 00:00:00,
2013-02-07 18:15:00,65.1,64.5,29.75,South,180,0.0,-999.0,98,-99.99,,,0.00,Acu-Link.com,2013-02-08 00:15:00,
2013-02-07 18:30:00,64.8,64.2,29.76,SE,135,0.0,-999.0,98,-99.99,,,0.00,Acu-Link.com,2013-02-08 00:30:00,
2013-02-07 18:46:00,64.8,64.2,29.75,ESE,112,0.0,-999.0,98,-99.99,,,0.00,Acu-Link.com,2013-02-08 00:46:00,
2013-02-07 19:01:00,64.6,64.0,29.76,SE,135,0.0,-999.0,98,-99.99,,,0.00,Acu-Link.com,2013-02-08 01:01:00,
2013-02-07 19:16:00,64.4,63.8,29.76,SE,135,1.7,-999.0,98,-99.99,,,0.00,Acu-Link.com,2013-02-08 01:16:00,
2013-02-07 19:31:00,64.2,63.6,29.77,East,90,0.0,-999.0,98,-99.99,,,0.00,Acu-Link.com,2013-02-08 01:31:00,
2013-02-07 19:47:00,63.9,63.3,29.77,ESE,112,1.1,-999.0,98,-99.99,,,0.00,Acu-Link.com,2013-02-08 01:47:00,
2013-02-07 20:02:00,63.1,62.5,29.77,SSE,157,0.0,-999.0,98,-99.99,,,0.00,Acu-Link.com,2013-02-08 02:02:00,
2013-02-07 20:17:00,62.6,62.0,29.77,ENE,67,2.2,-999.0,98,-99.99,,,0.00,Acu-Link.com,2013-02-08 02:17:00,
2013-02-07 20:32:00,61.9,61.3,29.78,ESE,112,2.2,-999.0,98,-99.99,,,0.00,Acu-Link.com,2013-02-08 02:32:00,
2013-02-07 20:49:00,61.5,60.9,29.79,ENE,67,0.0,-999.0,98,-99.99,,,0.00,Acu-Link.com,2013-02-08 02:49:00,